Weather History for Santa Fe, NM

Change the Weather History Date:

Sunday, December 1, 2013

  Actual Average Record
Temperature  
Mean Temperature 36 °F -  
Max Temperature 44 °F 51 °F 61 °F (2012)
Min Temperature 27 °F 16 °F 9 °F (2004)
Degree Days  
Heating Degree Days 30    
Moisture  
Dew Point 25 °F    
Average Humidity 72    
Maximum Humidity 85    
Minimum Humidity 53    
Precipitation  
Precipitation 0.00 in - - ()
Sea Level Pressure  
Sea Level Pressure 30.22 in    
Wind  
Wind Speed 12 mph (NNW)    
Max Wind Speed 18 mph    
Max Gust Speed 24 mph    
Visibility 10 miles    
Events      
Averages and records for this station are not official NWS values.
T = Trace of Precipitation, MM = Missing Value Source: NWS Daily Summary

Daily Weather History Graph

Daily Weather History Graph

Search for Another Location

Airport:

Trip Planner

Search our weather history database for the weather conditions in past years. The results will help you decide how hot, cold, wet, or windy it might be!

Date:

Astronomy

Dec. 01, 2013 Rise Set
Actual Time 6:55 AM MST 4:51 PM MST
Civil Twilight 6:27 AM MST 5:19 PM MST
Nautical Twilight 5:56 AM MST 5:50 PM MST
Astronomical Twilight 5:25 AM MST 6:21 PM MST
Moon 5:19 AM MST (12/1) 4:01 PM MST (12/1)
Length of Visible Light 10h 51m
Length of Day
9h 55m
Waning Crescent, 2% of the Moon is Illuminated
Dec 1
Waning Crescent
Dec 2
New
Dec 9
First Quarter
Dec 17
Full
Dec 25
Last Quarter

Hourly Weather History & Observations

Time (MST) Temp. Windchill Dew Point Humidity Pressure Visibility Wind Dir Wind Speed Gust Speed Precip Events Conditions
12:53 AM 30.0 °F 20.5 °F 24.1 °F 79% 30.22 in 10.0 mi North 11.5 mph - N/A   Clear
1:53 AM 28.9 °F 19.2 °F 23.0 °F 78% 30.21 in 10.0 mi North 11.5 mph - N/A   Clear
2:53 AM 28.9 °F 17.3 °F 21.9 °F 75% 30.20 in 10.0 mi North 16.1 mph - N/A   Clear
3:53 AM 28.0 °F 16.5 °F 21.9 °F 78% 30.21 in 10.0 mi North 15.0 mph - N/A   Clear
4:53 AM 28.0 °F 17.5 °F 21.0 °F 75% 30.22 in 10.0 mi North 12.7 mph - N/A   Clear
5:53 AM 28.0 °F 15.7 °F 21.0 °F 75% 30.24 in 10.0 mi North 17.3 mph - N/A   Clear
6:53 AM 27.0 °F 18.0 °F 21.0 °F 78% 30.26 in 10.0 mi NNW 9.2 mph - N/A   Clear
7:53 AM 28.9 °F 20.4 °F 21.0 °F 72% 30.31 in 10.0 mi North 9.2 mph - N/A   Clear
8:53 AM 30.9 °F 21.7 °F 23.0 °F 72% 30.30 in 10.0 mi North 11.5 mph - N/A   Clear
9:53 AM 35.1 °F 30.1 °F 24.1 °F 64% 30.30 in 10.0 mi NW 5.8 mph - N/A   Clear
10:53 AM 39.0 °F 32.8 °F 27.0 °F 62% 30.27 in 10.0 mi North 9.2 mph - N/A   Clear
11:53 AM 39.9 °F 33.4 °F 27.0 °F 60% 30.24 in 10.0 mi NNW 10.4 mph - N/A   Clear
12:53 PM 41.0 °F 34.7 °F 28.0 °F 60% 30.22 in 10.0 mi NNW 10.4 mph - N/A   Clear
1:53 PM 43.0 °F 36.4 °F 28.9 °F 58% 30.19 in 10.0 mi NNW 12.7 mph - N/A   Clear
2:53 PM 44.1 °F 39.0 °F 28.0 °F 53% 30.18 in 10.0 mi NW 9.2 mph - N/A   Clear
3:53 PM 41.0 °F 35.2 °F 32.0 °F 70% 30.19 in 10.0 mi West 9.2 mph - N/A   Clear
4:53 PM 37.0 °F 29.8 °F 32.0 °F 82% 30.20 in 10.0 mi WSW 10.4 mph - N/A   Clear
5:53 PM 34.0 °F 27.2 °F 28.9 °F 82% 30.21 in 10.0 mi WSW 8.1 mph - N/A   Clear
6:53 PM 33.1 °F 27.7 °F 28.9 °F 85% 30.23 in 10.0 mi West 5.8 mph - N/A   Clear
7:53 PM 34.0 °F 26.0 °F 26.1 °F 73% 30.19 in 10.0 mi NNW 10.4 mph - N/A   Clear
8:53 PM 34.0 °F 23.4 °F 25.0 °F 70% 30.18 in 10.0 mi NNW 17.3 mph - N/A   Clear
9:53 PM 32.0 °F 20.5 °F 24.1 °F 73% 30.16 in 10.0 mi North 18.4 mph - N/A   Clear
10:53 PM 32.0 °F 21.2 °F 24.1 °F 73% 30.15 in 10.0 mi NNW 16.1 mph - N/A   Clear
11:53 PM 30.9 °F 19.4 °F 24.1 °F 76% 30.14 in 10.0 mi NNW 17.3 mph 24.2 mph N/A   Clear